SCP
0 0 0 0 -0 0 0 -0 -0 -0 -0 -0 -0 -0 -0 -0 -0 -0 -0 -0 -0 -0 -0 -0 -0 -0 -0 -0 -0 -0 -0 -0 -0 -0 -0 -0 -0 -0 -0 -0 -0 -0 -0
-0 0 -0 0 0 0 -0 -0 -0 0 -0 -0 -0 -0 -0 -0 -0 -0 -0 -0 -0 -0 -0 -0 -0 -0 -0 -0 -0 -0 -0 -0 -0 -0 -0 -0 -0 -0 -0 -0 -0 -0 -0
-0 0 -0 0 -0 -0 -0 -0 -0 -0 -0 -0 -0 -0 -0 -0 -0 -0 -0 -0 -0 -0 -0 -0 -0 -0 -0 -0 -0 -0 -0 -0 -0 -0 -0 -0 -0 -0 -0 -0 -0 -0 -0
0 0 0 0 0 -0 -0 -0 -0 -0 -0 -0 -0 -0 -0 -0 -0 -0 -0 -0 -0 -0 -0 -0 -0 -0 -0 -0 -0 -0 -0 -0 -0 -0 -0 -0 -0 -0 -0 -0 -0 -0 -0
0 0 0 -0 -0 -0 -0 -0 -0 -0 -0 -0 -0 -0 -0 -0 -0 -0 -0 -0 -0 -0 -0 -0 -0 -0 -0 -0 -0 -0 -0 -0 -0 -0 -0 -0 -0 -0 -0 -0 -0 -0 -0
-0 0 -0 -0 -0 -0 -0 -0 -0 -0 -0 -0 -0 -0 -0 -0 -0 -0 -0 -0 -0 -0 -0 -0 -0 -0 -0 -0 -0 -0 -0 -0 -0 -0 -0 -0 -0 -0 -0 -0 -0 -0 -0
-0 0 -0 -0 -0 -0 -0 -0 -0 -0 -0 -0 -0 -0 -0 -0 -0 -0 -0 -0 -0 -0 -0 -0 -0 -0 -0 -0 -0 -0 -0 -0 -0 -0 -0 -0 -0 -0 -0 -0 -0 -0 -0
-0 -0 -0 -0 -0 -0 -0 -0 -0 -0 -0 -0 -0 -0 -0 -0 -0 -0 -0 -0 -0 -0 -0 -0 -0 -0 -0 -0 -0 -0 -0 -0 -0 -0 -0 -0 -0 -0 -0 -0 -0 -0 -0
-0 -0 -0 -0 -0 -0 -0 -0 -0 -0 -0 -0 -0 -0 -0 -0 -0 -0 -0 -0 -0 -0 -0 -0 -0 -0 -0 -0 -0 -0 -0 -0 -0 -0 -0 -0 -0 -0 -0 -0 -0 -0 -0
-0 -0 -0 -0 -0 -0 -0 -0 -0 -0 -0 -0 -0 -0 -0 -0 -0 -0 -0 -0 -0 -0 -0 -0 -0 -0 -0 -0 -0 -0 -0 -0 -0 -0 0 0 -0 -0 -0 -0 -0 -0 -0
-0 -0 -0 -0 -0 -0 -0 -0 -0 -0 -0 -0 -0 -0 -0 -0 -0 -0 -0 -0 -0 -0 -0 -0 -0 -0 -0 -0 -0 -0 0 0 0 0 0 0 -0 -0 -0 -0 -0 -0 -0
-0 -0 -0 -0 -0 -0 -0 -0 -0 -0 -0 -0 -0 -0 0 -0 -0 -0 -0 -0 -0 -0 -0 -0 -0 -0 0 0 0 0 0 0 0 0 0 0 -0 -0 -0 -0 -0 -0 0
-0 0 0 -0 -0 -0 0 0 0 0 0 0 -0 -0 0 0 0 0 0 0 0 0 0 0 0 0 0 0 0 0 0 0 0 0 0 0 -0 0 0 0 0 0 0
-0 -0 0 0 0 0 0 0 0 0 0 0 0 -0 0 0 0 0 0 0 0 0 0 0 0 0 0 0 0 0 0 0 0 0 0 0 0 0 0 0 0 0 0
-0 -0 0 0 0 0 0 0 0 0 0 0 0 0 0 0 0 0 0 0 0 0 0 0 0 0 0 0 0 0 0 0 0 0 0 0 0 0 0 0 0 0 0
-0 -0 -0 0 0 0 0 0 0 0 0 0 0 0 0 0 0 0 0 0 0 0 0 0 0 0 0 0 0 0 0 0 0 0 0 0 0 0 0 0 0 0 0
0 0 0 0 0 0 0 0 0 0 0 0 0 0 0 0 0 0 0 0 0 0 0 0 0 0 0 0 0 0 0 0 0 0 0 0 0 0 0 0 0 0 0
0 0 0 0 0 0 0 0 0 0 0 0 0 0 0 0 0 0 0 0 0 0 0 0 0 0 0 0 0 0 0 0 0 0 0 0 0 0 0 0 0 0 0
0 0 0 0 0 0 0 0 0 0 0 0 0 0 0 0 0 0 0 0 0 0 0 0 0 0 0 0 0 0 0 0 0 0 0 0 0 0 0 0 0 0 0
0 0 0 0 0 0 0 0 0 0 0 0 0 0 0 0 0 0 0 0 0 0 0 0 0 0 0 0 0 0 0 0 0 0 0 0 0 0 0 0 0 0 0
0 0 0 0 0 0 0 0 0 0 0 0 0 0 0 0 0 0 0 0 0 0 0 0 0 0 0 0 0 0 0 0 0 0 0 0 0 0 0 0 0 0 0
0 0 0 0 0 0 0 0 0 0 0 0 0 0 0 0 0 0 0 0 0 0 0 0 0 0 0 0 0 0 0 0 0 0 0 0 0 0 0 0 0 0 0
0 0 0 0 0 0 0 0 0 0 0 0 0 0 0 0 0 0 0 0 0 0 0 0 0 0 0 0 0 0 0 0 0 0 0 0 0 0 0 0 0 0 0
0 0 0 0 0 0 0 0 0 0 0 0 0 0 0 0 0 0 0 0 0 0 0 0 0 0 0 0 0 0 0 0 0 0 0 0 0 0 0 0 0 0 0
0 0 0 0 0 0 0 0 0 0 0 0 0 0 0 0 0 0 0 0 0 0 0 0 0 0 0 0 0 0 0 0 0 0 0 0 0 0 0 0 0 0 0
0 0 0 0 0 0 0 0 0 0 0 0 0 0 0 0 0 0 0 0 0 0 0 0 0 0 0 0 0 0 0 0 0 0 0 0 0 0 0 0 0 0 0
Wind_Speed_500mb
38 35 29 28 27 28 25 22 22 25 28 30 31 32 33 31 30 32 31 32 31 33 38 40 36 34 35 36 36 39 40 42 40 35 34 31 28 27 27 27 31 34 36
36 36 31 30 29 28 24 23 22 23 26 29 30 32 34 33 32 32 31 30 30 31 37 34 31 31 31 31 33 35 35 35 37 42 42 35 32 29 29 25 24 24 23
37 36 32 30 30 27 25 24 22 23 25 28 29 33 34 35 34 31 30 29 30 31 35 31 30 29 28 28 32 33 34 35 36 41 47 42 39 35 33 31 30 28 26
36 34 33 32 31 28 25 23 24 22 23 25 29 32 33 32 30 29 28 28 29 31 34 33 29 26 27 29 30 31 34 36 35 43 41 42 42 41 38 36 35 34 34
36 35 34 32 31 29 26 24 22 18 20 23 27 29 29 27 27 26 26 26 26 27 31 29 25 27 28 29 32 35 38 37 39 44 43 40 42 47 44 40 41 39 38
33 33 34 33 30 27 24 23 22 20 18 21 25 25 24 25 25 24 24 24 24 25 24 25 26 27 29 30 32 34 35 36 41 42 41 43 40 42 43 46 45 44 43
37 36 33 31 28 26 23 21 19 17 16 17 22 21 22 23 25 25 23 22 25 26 27 27 26 26 27 28 30 31 32 34 40 40 41 41 45 46 47 52 50 48 48
38 38 35 32 28 25 23 21 18 16 15 15 18 18 18 19 23 27 29 26 26 27 28 28 27 26 27 27 28 30 30 35 42 43 46 45 41 39 43 41 46 44 43
37 39 39 36 33 29 26 22 19 17 16 16 15 16 14 15 19 23 28 30 29 29 29 27 26 26 27 29 30 30 31 34 38 37 33 29 37 37 36 38 38 33 31
42 41 39 38 36 34 31 26 23 20 19 20 17 14 12 13 16 19 23 25 27 29 29 29 28 28 28 30 31 30 30 33 38 39 39 38 37 37 39 38 37 42 43
49 49 46 44 41 38 34 31 27 24 21 20 19 17 14 12 14 16 18 18 16 19 23 26 27 28 29 31 30 29 28 35 39 48 43 39 38 39 42 45 46 41 37
54 53 51 47 44 41 38 35 31 28 26 24 23 21 19 15 13 16 15 9 7 8 12 17 21 23 23 27 28 25 30 34 38 43 40 36 36 42 49 42 35 34 31
50 51 52 50 48 45 42 38 35 32 30 28 26 26 22 18 17 16 15 14 8 3 2 8 14 16 17 20 20 22 24 27 34 38 46 47 41 42 37 36 28 27 37
53 50 51 52 48 48 46 44 40 37 34 34 32 33 30 27 23 23 22 20 17 11 7 6 11 11 13 15 16 17 20 26 30 34 30 33 35 41 42 41 36 36 36
56 54 52 52 50 47 46 48 49 44 41 38 37 35 34 34 32 27 30 27 25 21 14 14 12 12 14 14 13 14 22 27 27 28 28 21 24 29 37 36 35 30 28
59 58 54 53 53 53 52 51 53 52 50 44 43 42 40 39 37 38 34 35 32 30 25 20 16 19 19 17 13 24 24 26 26 27 26 22 20 18 13 16 18 30 30
61 60 60 57 57 57 56 55 56 56 57 56 52 49 46 45 43 44 40 41 37 47 34 27 22 24 22 20 22 28 27 27 26 24 23 20 17 12 12 14 16 19 27
62 62 60 61 60 59 58 57 59 61 62 65 63 60 60 54 50 52 47 46 39 48 38 27 23 27 28 24 29 32 30 29 27 24 20 16 11 9 10 12 12 16 18
64 64 65 63 63 61 60 60 61 63 66 65 70 65 68 64 63 57 53 48 44 54 41 30 29 31 36 33 37 37 35 32 28 22 16 10 7 7 7 9 11 12 13
68 68 67 66 65 64 64 63 63 65 67 69 70 68 67 62 60 64 58 59 55 62 46 42 36 39 41 40 45 42 38 33 27 21 14 8 3 1 4 6 8 9 10
72 74 74 72 70 70 71 69 68 69 68 71 72 67 63 65 66 66 66 67 61 58 63 47 43 46 51 51 53 46 38 32 27 22 16 11 7 5 5 7 9 10 11
73 76 78 77 74 73 74 72 69 68 68 69 71 65 65 62 65 66 66 67 61 67 67 48 54 58 60 61 56 44 28 28 31 27 21 16 12 9 9 10 10 11 13
73 77 79 79 77 77 75 76 75 70 68 69 73 68 68 67 66 70 67 68 69 63 68 60 64 67 70 72 65 30 18 17 36 33 28 23 19 17 15 13 13 13 14
72 72 78 81 81 80 79 82 78 75 75 74 76 72 67 64 64 65 70 75 68 80 69 62 65 73 75 76 75 62 27 25 20 22 35 30 27 23 18 16 16 15 15
61 72 74 79 84 86 87 86 81 79 77 75 76 73 70 71 71 72 70 76 77 78 64 71 72 80 79 77 78 70 47 34 29 20 21 37 36 29 23 21 20 19 16
46 55 62 71 80 87 92 91 89 84 82 79 76 78 78 77 77 73 74 75 81 75 76 71 74 77 78 77 77 61 53 45 42 32 22 26 27 30 28 26 24 23 19
Wind_Direction_500mb
169 169 158 147 134 138 134 132 105 87 82 75 75 79 83 91 94 89 85 83 81 81 86 87 88 88 83 81 84 80 75 73 75 84 86 91 90 86 82 81 83 79 78
163 169 161 150 145 143 138 132 107 91 90 84 81 81 84 90 91 90 90 91 91 91 91 95 95 90 86 85 83 81 77 76 77 83 76 82 84 82 79 75 73 71 69
159 160 156 152 150 146 143 134 119 105 104 96 93 89 86 84 85 87 91 93 95 97 97 99 97 95 93 90 84 82 77 77 80 82 73 68 72 75 76 77 74 72 69
160 157 156 157 155 149 143 140 127 118 108 104 98 94 89 85 85 85 86 90 95 98 97 97 101 99 88 81 80 81 79 81 81 79 73 71 67 68 70 70 69 66 64
163 161 162 161 159 156 154 146 135 122 110 109 105 97 90 87 84 82 81 84 89 94 101 98 91 86 82 78 78 76 74 74 74 73 75 74 73 68 67 71 67 66 65
165 166 167 165 164 161 158 149 144 136 120 119 113 107 99 93 90 90 90 88 88 89 88 87 83 78 76 77 78 78 77 75 76 76 72 65 67 67 66 64 65 63 62
171 173 172 172 171 167 165 158 154 141 134 123 123 116 101 88 84 84 87 95 97 96 93 90 86 85 86 85 83 83 81 82 81 75 72 71 69 68 65 64 60 59 58
178 178 179 178 181 178 176 171 164 153 147 132 128 121 104 89 86 82 82 94 101 100 99 97 98 98 95 93 91 90 89 89 82 87 88 91 86 84 84 82 80 76 73
183 186 185 185 185 187 187 182 177 167 162 159 148 136 117 99 96 89 85 90 96 99 99 99 99 99 99 96 93 90 90 91 86 85 82 76 79 75 75 76 75 78 75
188 190 190 191 192 194 194 193 190 188 179 174 176 160 150 127 116 105 92 88 91 90 90 91 92 93 93 92 92 92 92 91 82 81 73 69 69 72 71 70 72 73 64
193 193 196 197 197 199 201 200 198 196 196 191 190 187 176 163 150 136 111 92 78 85 91 92 93 92 94 95 95 95 93 86 94 96 90 82 77 75 73 72 75 74 67
198 200 202 204 206 206 206 206 205 205 205 205 208 203 196 189 180 171 149 125 107 62 91 97 97 99 103 103 102 97 88 92 99 105 100 90 84 76 79 80 81 77 64
204 203 204 204 205 207 205 205 209 210 212 212 215 211 203 209 210 209 198 191 191 164 80 130 120 117 115 111 108 101 101 106 102 106 104 97 93 96 89 88 80 73 60
210 209 208 210 213 209 208 205 212 215 218 221 218 219 213 206 217 222 219 220 208 206 221 238 174 154 139 129 119 113 117 121 116 114 114 116 116 91 88 82 71 70 66
215 216 216 217 221 222 219 218 214 213 216 223 227 231 227 219 227 221 229 223 215 213 219 222 215 197 168 158 139 130 130 127 123 121 118 117 96 92 86 82 81 73 57
220 222 222 223 224 229 230 229 221 217 217 218 224 229 230 226 225 228 230 227 221 216 199 207 241 214 180 180 157 146 143 138 134 125 120 114 105 104 97 65 49 65 65
225 225 226 228 229 231 232 233 230 225 222 222 222 223 226 229 230 234 236 234 224 235 202 201 234 218 196 179 166 157 154 145 138 139 135 124 117 94 64 36 35 53 62
228 229 230 231 232 233 234 234 234 233 230 228 223 222 224 228 232 234 234 234 231 218 202 203 237 218 199 192 178 166 160 154 154 150 139 125 111 74 45 32 20 8 3
232 231 232 233 233 234 235 236 236 236 235 234 228 226 227 227 227 232 232 234 239 209 204 210 235 226 208 197 183 172 166 165 165 156 144 133 103 49 17 2 353 350 353
235 234 234 235 236 236 237 237 236 236 234 234 228 230 223 222 224 228 229 231 233 214 218 217 231 219 210 206 184 175 173 173 171 164 163 159 139 329 326 338 342 340 351
237 237 236 237 237 236 237 237 236 236 234 231 229 228 224 221 223 228 226 226 228 239 212 215 227 223 206 203 186 176 175 178 180 182 186 193 216 250 293 305 310 322 335
239 239 239 239 239 239 240 242 241 242 239 232 228 229 221 220 224 225 226 229 227 223 207 223 228 215 210 204 192 176 173 189 196 198 201 209 220 240 262 277 292 309 322
241 240 241 242 242 241 240 239 239 239 237 230 225 225 219 217 221 226 228 226 229 232 221 237 226 223 213 202 199 184 175 199 196 206 208 214 222 234 246 261 279 294 310
248 246 243 243 243 243 241 241 241 242 240 235 230 228 221 218 219 216 233 224 231 226 223 237 235 222 220 215 203 204 203 204 178 191 215 218 223 230 238 253 267 280 294
247 246 246 245 244 244 243 243 242 240 240 239 232 225 224 219 222 229 227 227 224 221 241 238 228 220 221 221 213 211 217 215 210 197 197 216 221 226 235 246 256 267 278
244 241 240 240 243 242 241 240 240 240 240 238 230 223 224 224 221 225 227 230 232 234 246 232 226 224 221 221 220 224 231 225 223 217 208 206 214 226 233 242 250 256 268
Wind_Speed_850mb
38 35 29 28 27 28 25 22 22 25 28 30 31 32 33 31 30 32 31 32 31 33 38 40 36 34 35 36 36 39 40 42 40 35 34 31 28 27 27 27 31 34 36
36 36 31 30 29 28 24 23 22 23 26 29 30 32 34 33 32 32 31 30 30 31 37 34 31 31 31 31 33 35 35 35 37 42 42 35 32 29 29 25 24 24 23
37 36 32 30 30 27 25 24 22 23 25 28 29 33 34 35 34 31 30 29 30 31 35 31 30 29 28 28 32 33 34 35 36 41 47 42 39 35 33 31 30 28 26
36 34 33 32 31 28 25 23 24 22 23 25 29 32 33 32 30 29 28 28 29 31 34 33 29 26 27 29 30 31 34 36 35 43 41 42 42 41 38 36 35 34 34
36 35 34 32 31 29 26 24 22 18 20 23 27 29 29 27 27 26 26 26 26 27 31 29 25 27 28 29 32 35 38 37 39 44 43 40 42 47 44 40 41 39 38
33 33 34 33 30 27 24 23 22 20 18 21 25 25 24 25 25 24 24 24 24 25 24 25 26 27 29 30 32 34 35 36 41 42 41 43 40 42 43 46 45 44 43
37 36 33 31 28 26 23 21 19 17 16 17 22 21 22 23 25 25 23 22 25 26 27 27 26 26 27 28 30 31 32 34 40 40 41 41 45 46 47 52 50 48 48
38 38 35 32 28 25 23 21 18 16 15 15 18 18 18 19 23 27 29 26 26 27 28 28 27 26 27 27 28 30 30 35 42 43 46 45 41 39 43 41 46 44 43
37 39 39 36 33 29 26 22 19 17 16 16 15 16 14 15 19 23 28 30 29 29 29 27 26 26 27 29 30 30 31 34 38 37 33 29 37 37 36 38 38 33 31
42 41 39 38 36 34 31 26 23 20 19 20 17 14 12 13 16 19 23 25 27 29 29 29 28 28 28 30 31 30 30 33 38 39 39 38 37 37 39 38 37 42 43
49 49 46 44 41 38 34 31 27 24 21 20 19 17 14 12 14 16 18 18 16 19 23 26 27 28 29 31 30 29 28 35 39 48 43 39 38 39 42 45 46 41 37
54 53 51 47 44 41 38 35 31 28 26 24 23 21 19 15 13 16 15 9 7 8 12 17 21 23 23 27 28 25 30 34 38 43 40 36 36 42 49 42 35 34 31
50 51 52 50 48 45 42 38 35 32 30 28 26 26 22 18 17 16 15 14 8 3 2 8 14 16 17 20 20 22 24 27 34 38 46 47 41 42 37 36 28 27 37
53 50 51 52 48 48 46 44 40 37 34 34 32 33 30 27 23 23 22 20 17 11 7 6 11 11 13 15 16 17 20 26 30 34 30 33 35 41 42 41 36 36 36
56 54 52 52 50 47 46 48 49 44 41 38 37 35 34 34 32 27 30 27 25 21 14 14 12 12 14 14 13 14 22 27 27 28 28 21 24 29 37 36 35 30 28
59 58 54 53 53 53 52 51 53 52 50 44 43 42 40 39 37 38 34 35 32 30 25 20 16 19 19 17 13 24 24 26 26 27 26 22 20 18 13 16 18 30 30
61 60 60 57 57 57 56 55 56 56 57 56 52 49 46 45 43 44 40 41 37 47 34 27 22 24 22 20 22 28 27 27 26 24 23 20 17 12 12 14 16 19 27
62 62 60 61 60 59 58 57 59 61 62 65 63 60 60 54 50 52 47 46 39 48 38 27 23 27 28 24 29 32 30 29 27 24 20 16 11 9 10 12 12 16 18
64 64 65 63 63 61 60 60 61 63 66 65 70 65 68 64 63 57 53 48 44 54 41 30 29 31 36 33 37 37 35 32 28 22 16 10 7 7 7 9 11 12 13
68 68 67 66 65 64 64 63 63 65 67 69 70 68 67 62 60 64 58 59 55 62 46 42 36 39 41 40 45 42 38 33 27 21 14 8 3 1 4 6 8 9 10
72 74 74 72 70 70 71 69 68 69 68 71 72 67 63 65 66 66 66 67 61 58 63 47 43 46 51 51 53 46 38 32 27 22 16 11 7 5 5 7 9 10 11
73 76 78 77 74 73 74 72 69 68 68 69 71 65 65 62 65 66 66 67 61 67 67 48 54 58 60 61 56 44 28 28 31 27 21 16 12 9 9 10 10 11 13
73 77 79 79 77 77 75 76 75 70 68 69 73 68 68 67 66 70 67 68 69 63 68 60 64 67 70 72 65 30 18 17 36 33 28 23 19 17 15 13 13 13 14
72 72 78 81 81 80 79 82 78 75 75 74 76 72 67 64 64 65 70 75 68 80 69 62 65 73 75 76 75 62 27 25 20 22 35 30 27 23 18 16 16 15 15
61 72 74 79 84 86 87 86 81 79 77 75 76 73 70 71 71 72 70 76 77 78 64 71 72 80 79 77 78 70 47 34 29 20 21 37 36 29 23 21 20 19 16
46 55 62 71 80 87 92 91 89 84 82 79 76 78 78 77 77 73 74 75 81 75 76 71 74 77 78 77 77 61 53 45 42 32 22 26 27 30 28 26 24 23 19
Wind_Direction_850mb
169 169 158 147 134 138 134 132 105 87 82 75 75 79 83 91 94 89 85 83 81 81 86 87 88 88 83 81 84 80 75 73 75 84 86 91 90 86 82 81 83 79 78
163 169 161 150 145 143 138 132 107 91 90 84 81 81 84 90 91 90 90 91 91 91 91 95 95 90 86 85 83 81 77 76 77 83 76 82 84 82 79 75 73 71 69
159 160 156 152 150 146 143 134 119 105 104 96 93 89 86 84 85 87 91 93 95 97 97 99 97 95 93 90 84 82 77 77 80 82 73 68 72 75 76 77 74 72 69
160 157 156 157 155 149 143 140 127 118 108 104 98 94 89 85 85 85 86 90 95 98 97 97 101 99 88 81 80 81 79 81 81 79 73 71 67 68 70 70 69 66 64
163 161 162 161 159 156 154 146 135 122 110 109 105 97 90 87 84 82 81 84 89 94 101 98 91 86 82 78 78 76 74 74 74 73 75 74 73 68 67 71 67 66 65
165 166 167 165 164 161 158 149 144 136 120 119 113 107 99 93 90 90 90 88 88 89 88 87 83 78 76 77 78 78 77 75 76 76 72 65 67 67 66 64 65 63 62
171 173 172 172 171 167 165 158 154 141 134 123 123 116 101 88 84 84 87 95 97 96 93 90 86 85 86 85 83 83 81 82 81 75 72 71 69 68 65 64 60 59 58
178 178 179 178 181 178 176 171 164 153 147 132 128 121 104 89 86 82 82 94 101 100 99 97 98 98 95 93 91 90 89 89 82 87 88 91 86 84 84 82 80 76 73
183 186 185 185 185 187 187 182 177 167 162 159 148 136 117 99 96 89 85 90 96 99 99 99 99 99 99 96 93 90 90 91 86 85 82 76 79 75 75 76 75 78 75
188 190 190 191 192 194 194 193 190 188 179 174 176 160 150 127 116 105 92 88 91 90 90 91 92 93 93 92 92 92 92 91 82 81 73 69 69 72 71 70 72 73 64
193 193 196 197 197 199 201 200 198 196 196 191 190 187 176 163 150 136 111 92 78 85 91 92 93 92 94 95 95 95 93 86 94 96 90 82 77 75 73 72 75 74 67
198 200 202 204 206 206 206 206 205 205 205 205 208 203 196 189 180 171 149 125 107 62 91 97 97 99 103 103 102 97 88 92 99 105 100 90 84 76 79 80 81 77 64
204 203 204 204 205 207 205 205 209 210 212 212 215 211 203 209 210 209 198 191 191 164 80 130 120 117 115 111 108 101 101 106 102 106 104 97 93 96 89 88 80 73 60
210 209 208 210 213 209 208 205 212 215 218 221 218 219 213 206 217 222 219 220 208 206 221 238 174 154 139 129 119 113 117 121 116 114 114 116 116 91 88 82 71 70 66
215 216 216 217 221 222 219 218 214 213 216 223 227 231 227 219 227 221 229 223 215 213 219 222 215 197 168 158 139 130 130 127 123 121 118 117 96 92 86 82 81 73 57
220 222 222 223 224 229 230 229 221 217 217 218 224 229 230 226 225 228 230 227 221 216 199 207 241 214 180 180 157 146 143 138 134 125 120 114 105 104 97 65 49 65 65
225 225 226 228 229 231 232 233 230 225 222 222 222 223 226 229 230 234 236 234 224 235 202 201 234 218 196 179 166 157 154 145 138 139 135 124 117 94 64 36 35 53 62
228 229 230 231 232 233 234 234 234 233 230 228 223 222 224 228 232 234 234 234 231 218 202 203 237 218 199 192 178 166 160 154 154 150 139 125 111 74 45 32 20 8 3
232 231 232 233 233 234 235 236 236 236 235 234 228 226 227 227 227 232 232 234 239 209 204 210 235 226 208 197 183 172 166 165 165 156 144 133 103 49 17 2 353 350 353
235 234 234 235 236 236 237 237 236 236 234 234 228 230 223 222 224 228 229 231 233 214 218 217 231 219 210 206 184 175 173 173 171 164 163 159 139 329 326 338 342 340 351
237 237 236 237 237 236 237 237 236 236 234 231 229 228 224 221 223 228 226 226 228 239 212 215 227 223 206 203 186 176 175 178 180 182 186 193 216 250 293 305 310 322 335
239 239 239 239 239 239 240 242 241 242 239 232 228 229 221 220 224 225 226 229 227 223 207 223 228 215 210 204 192 176 173 189 196 198 201 209 220 240 262 277 292 309 322
241 240 241 242 242 241 240 239 239 239 237 230 225 225 219 217 221 226 228 226 229 232 221 237 226 223 213 202 199 184 175 199 196 206 208 214 222 234 246 261 279 294 310
248 246 243 243 243 243 241 241 241 242 240 235 230 228 221 218 219 216 233 224 231 226 223 237 235 222 220 215 203 204 203 204 178 191 215 218 223 230 238 253 267 280 294
247 246 246 245 244 244 243 243 242 240 240 239 232 225 224 219 222 229 227 227 224 221 241 238 228 220 221 221 213 211 217 215 210 197 197 216 221 226 235 246 256 267 278
244 241 240 240 243 242 241 240 240 240 240 238 230 223 224 224 221 225 227 230 232 234 246 232 226 224 221 221 220 224 231 225 223 217 208 206 214 226 233 242 250 256 268